Tracking 20041 objects as of 22-Nov-2019
Live streaming from Space Station
objects crossing your sky now

SL-8 R/B

Track SL-8 R/B now!
10-day predictions


NORAD ID: 16953
Int'l Code: 1986-070B
Perigee: 766.4 km
Apogee: 782.3 km
Inclination: 74.0 °
Period: 100.2 minutes
Semi major axis: 7145 km
RCS: 6.5779 m2 (large)
Launch date: September 10, 1986
Source: Commonwealth of Independent States (former USSR) (CIS)
Launch site: PLESETSK MISSILE AND SPACE COMPLEX (PKMTR)

Note: This is a ROCKET BODY
aabbcc
Your satellite tracking list
Your tracking list is empty




NASA's NSSDC Master Catalog

Two Line Element Set (TLE):
1 16953U 86070B   19325.83833394 +.00000057 +00000-0 +27883-4 0  9990
2 16953 074.0129 080.6828 0011088 088.8020 271.4403 14.37368299739377
Source of the keplerian elements: AFSPC